Tracking 21607 objects as of 23-Oct-2020
HD Live streaming from Space Station
objects crossing your sky now

COSMOS 1470

Track COSMOS 1470 now!
10-day predictions
COSMOS 1470 is classified as:


NORAD ID: 14147
Int'l Code: 1983-061A
Perigee: 527.8 km
Apogee: 549.9 km
Inclination: 82.5 °
Period: 95.3 minutes
Semi major axis: 6909 km
RCS: 8.3388 m2 (large)
Launch date: June 23, 1983
Source: Commonwealth of Independent States (former USSR) (CIS)
Launch site: PLESETSK MISSILE AND SPACE COMPLEX (PKMTR)
aabbcc
Your satellite tracking list
Your tracking list is empty




NASA's NSSDC Master Catalog

Two Line Element Set (TLE):
1 14147U 83061A   20296.90118482 +.00001094 +00000-0 +62731-4 0  9994
2 14147 082.4796 276.4615 0016007 019.1981 340.9848 15.11469875789332
Source of the keplerian elements: AFSPC